[Iaude] MPEC T42: 2016 TS2 [a=1.54,e=0.35,i=8.7,H=26.4]

mpec at si.edu mpec at si.edu
Wed Oct 5 12:15:44 EDT 2016


M.P.E.C. 2016-T42                                Issued 2016 Oct. 5, 16:10 UT
 
     The Minor Planet Electronic Circulars contain information on unusual
         minor planets and routine data on comets.  They are published
    on behalf of Division F of the International Astronomical Union by the
          Minor Planet Center, Smithsonian Astrophysical Observatory,
                          Cambridge, MA 02138, U.S.A.

             Prepared using the Tamkin Foundation Computer Network

                              MPC at CFA.HARVARD.EDU
            URL http://www.minorplanetcenter.net/    ISSN 1523-6714


                                   2016 TS2
 
Observations:
     K16T02S* C2016 10 04.39379 03 13 05.46 +21 35 31.5          18.8 VqET042G96
     K16T02S  C2016 10 04.39954 03 13 20.10 +21 33 03.4          19.1 VqET042G96
     K16T02S  C2016 10 04.40531 03 13 34.87 +21 30 34.5          18.4 VqET042G96
     K16T02S  C2016 10 04.41110 03 13 49.58 +21 28 05.3          18.7 VqET042G96
     K16T02S  C2016 10 04.47046 03 16 20.40 +21 02 17.9          19.6 VqET042I52
     K16T02S  C2016 10 04.47077 03 16 21.21 +21 02 10.1          19.4 VqET042I52
     K16T02S  C2016 10 04.47133 03 16 22.62 +21 01 55.5          19.4 VqET042I52
     K16T02S  C2016 10 04.51822 03 18 21.97 +20 41 16.9          19.0 VqET042G96
     K16T02S  C2016 10 04.51839 03 18 22.40 +20 41 12.4          19.1 VqET042G96
     K16T02S  C2016 10 04.51857 03 18 22.83 +20 41 07.3          19.5 VqET042G96
     K16T02S  C2016 10 04.51875 03 18 23.27 +20 41 02.8          19.6 VqET042G96
     K16T02S KC2016 10 04.91746 03 36 23.44 +17 44 57.6                qET042587
     K16T02S KC2016 10 04.91946 03 36 28.29 +17 44 07.2                qET042587
     K16T02S KC2016 10 04.92086 03 36 31.78 +17 43 31.1                qET042587
     K16T02S KC2016 10 04.99273003 39 26.77 +17 11 48.0                qET042J95
     K16T02S KC2016 10 04.99468703 39 31.52 +17 10 58.2                qET042J95
     K16T02S KC2016 10 04.99666903 39 36.24 +17 10 06.2          19.3 RqET042J95
     K16T02S KC2016 10 05.00020 03 39 43.08 +17 09 23.7                qET042204
     K16T02S KC2016 10 05.00260 03 39 48.78 +17 08 21.7          19.3 RqET042204
     K16T02S HC2016 10 05.01382 03 40 15.31 +17 03 30.8                qET042204
     K16T02S KC2016 10 05.01722 03 40 23.32 +17 02 02.3                qET042204
     K16T02S  C2016 10 05.26788 03 50 46.68 +15 13 58.3          19.2 RoET042926
     K16T02S  C2016 10 05.26950 03 50 50.40 +15 13 17.5          19.6 RoET042926
     K16T02S  C2016 10 05.27111 03 50 54.08 +15 12 36.3          19.2 RoET042926
     K16T02S  C2016 10 05.27273 03 50 57.75 +15 11 55.1          19.1 RoET042926
     K16T02S  C2016 10 05.27435 03 51 01.45 +15 11 13.9          19.5 RoET042926
     K16T02S  C2016 10 05.27596 03 51 05.14 +15 10 32.7          19.5 RoET042926
     K16T02S KC2016 10 05.37356003 54 30.96 +14 28 04.3          19.9 VuET042H21
     K16T02S KC2016 10 05.37603803 54 36.36 +14 27 00.2          19.2 VuET042H21
     K16T02S KC2016 10 05.37860103 54 41.93 +14 25 53.7          19.5 VuET042H21
     K16T02S KC2016 10 05.38116303 54 47.52 +14 24 47.2          19.8 VuET042H21
     K16T02S KC2016 10 05.38419603 54 54.11 +14 23 28.2          19.4 VuET042H21
 
Observer details:
204 Schiaparelli Observatory.  Observer L. Buzzi.  0.60-m f/4.64 reflector
    + CCD.
587 Sormano.  Observers P. Ghezzi, F. Manca, P. Sicoli, A. Testa.  Measurer
    P. Sicoli.  0.5-m f/6.8 reflector + CCD.
926 Tenagra II Observatory.  Observers M. Schwartz, P. R. Holvorcem.  Measurer
    M. Schwartz.  0.81-m f/7 Ritchey-Chretien + CCD.
G96 Mt. Lemmon Survey.  Observer A. D. Grauer.  Measurers E. J. Christensen,
    D. C. Fuls, A. R. Gibbs, A. D. Grauer, J. A. Johnson, R. A. Kowalski,
    S. M. Larson, G. J. Leonard, R. G. Matheny, R. L. Seaman, F. C. Shelly.
    1.5-m reflector + 10K CCD.
H21 Astronomical Research Observatory, Westfield.  Observer R. Holmes.
    Measurers S. Foglia, L. Buzzi, T. Linder, R. Holmes.  0.61-m f/4.5
    astrograph + CCD.
I52 Steward Observatory, Mt. Lemmon Station.  Observer G. J. Leonard.
    Measurers E. J. Christensen, D. C. Fuls, A. R. Gibbs, A. D. Grauer,
    J. A. Johnson, R. A. Kowalski, S. M. Larson, G. J. Leonard, R. G. Matheny,
    R. L. Seaman, F. C. Shelly.  1.0-m reflector + CCD.
J95 Great Shefford.  Observer P. Birtwhistle.  0.40-m f/6.0 Schmidt-Cassegrain
    + CCD.
 
Orbital elements:
2016 TS2                                                 Earth MOID = 0.0123 AU
Epoch 2016 July 31.0 TT = JDT 2457600.5                 MPC
M 318.99744              (2000.0)            P               Q
n   0.51714299     Peri.  195.24270     +0.88612560     -0.46228853
a   1.5371950      Node   192.44803     +0.43949851     +0.86064386
e   0.3467018      Incl.    8.73149     +0.14704582     +0.21349815
P   1.91           H   26.4           G   0.15           U   6
Residuals in seconds of arc
161004 G96  0.0   0.2+    161004 587  0.8+  0.8-    161005 926  0.0   0.3+
161004 G96  0.4-  0.0     161004 587  0.1-  0.2+    161005 926  0.1+  0.1+
161004 G96  0.5+  0.2-    161004 587  0.7+  0.1+    161005 926  0.3-  0.1+
161004 G96  0.0   0.1+    161004 J95  0.4-  0.3-    161005 926  0.1-  0.1+
161004 I52  0.4-  0.4-    161004 J95  0.3+  0.4+    161005 926  0.2+  0.1-
161004 I52  0.1-  0.1-    161004 J95  0.3-  0.3-    161005 H21  0.1+  0.1+
161004 I52  0.3-  0.0     161005 204  0.1+  0.2+    161005 H21  0.1+  0.2+
161004 G96  0.5+  0.2+    161005 204  0.3+  0.5+    161005 H21  0.0   0.0
161004 G96  0.4+  0.2+    161005 204  0.3+  0.6+    161005 H21  0.2+  0.1-
161004 G96  0.0   0.1-    161005 204  0.2+  0.4+    161005 H21  0.0   0.6-
161004 G96  0.3-  0.1+    161005 926  0.3-  0.1-

Ephemeris:
2016 TS2                 a,e,i = 1.54, 0.35, 9                   q = 1.0042
Date    TT    R. A. (2000) Decl.     Delta      r     Elong.  Phase     V
2016 09 05    20 52 44.3 +30 57 43   0.1192  1.0917   132.1    43.3    23.6
...
2016 09 20    21 22 48.0 +35 26 24   0.05949 1.0434   129.9    47.6    22.2
...
2016 09 28    22 52 31.7 +39 11 35   0.03029 1.0247   138.0    40.9    20.5
...
2016 10 04    02 54 38.1 +24 22 47   0.01786 1.0144   142.0    37.4    19.2
2016 10 05    03 39 28.1 +17 13 54   0.01822 1.0130   135.3    44.0    19.4
2016 10 06    04 17 26.4 +10 09 18   0.01942 1.0118   127.8    51.3    19.8
...
2016 10 12    06 13 15.3 -13 24 05   0.03620 1.0060   101.8    76.1    21.9
...
2016 10 20    06 58 59.7 -21 32 59   0.06511 1.0040    95.4    80.9    23.3
...
2016 11 04    07 23 39.5 -25 39 50   0.1185  1.0174    99.2    74.2    24.4

A. U. Tomatic                (C) Copyright 2016 MPC           M.P.E.C. 2016-T42




More information about the Iaude mailing list